Weather in Svetly

Russia / Kirov Oblast     58°04′58″N   47°35′46″E
temp.,
°C
wind,
m/s
gust,
m/s
humid.,
%
clouds,
%
prec.,
mm/h
press.,
hPa
HPBL,
m
26 february, fri
fri2600:00−19se3896100 0.0 1017306
03:00−21ese389898 0.1 1018205
06:00−23se279892 0.0 1017172
09:00−20se499592 0.0 1016336
12:00−16se599299 0.0 1013493
15:00−14se61191100 0.1 1010625
18:00−14se61493100 0.4 1005677
21:00−14se61294100 3.8 1002733
27 february, sat
sat2700:00−14ese51194100 2.4 999682
03:00−15e51194100 3.3 999576
06:00−16e41093100 0.3 999543
09:00−15ene4993100 0.6 1001538
12:00−13ne4889100 0.1 1002629
15:00−12ne5888100 0.3 1005765
18:00−14nne31092100 0.0 1007398
21:00−15nne399492 0.1 1009259
28 february, sun
sun2800:00−19n369839 0.0 1010133
03:00−20n369838 0.0 1011127
06:00−22n259814 0.0 1012110
09:00−19nne369415 0.0 1014287
12:00−15n369073 0.0 1014472
15:00−14nne368879 0.0 1015526
18:00−18nne229563 0.0 101720
21:00−20n229732 0.0 101920
1 march, mon
mon100:00−21n12980 0.0 102020
03:00−22nw11980 0.0 102220
06:00−22wnw11970 0.0 102320
09:00−17w129317 0.0 1024139
12:00−11wsw238851 0.0 1024398
15:00−9wsw369276 0.0 1023444
18:00−11sw3996100 0.1 1021289
21:00−10sw41194100 0.1 1019439
2 march, tue
tue200:00−9sw41192100 0.1 1014454
03:00−7wsw51295100 1.4 1010612
06:00−5wsw51295100 1.4 1007573
09:00−1wsw4896100 2.3 1005438
12:000w3710098 0.2 1004505
15:00+1wnw399798 0.4 1003693
18:00−3wnw3109066 0.1 1004295
21:00−4wnw3109373 0.1 1005319